[[{"header":{"parameterUnit":"m.s-1","parameterCategory":1,"la1":30.2991,"la2":30.254,"lo1":-89.0895,"lo2":-89.0444,"dy":0.0017,"dx":0.0017,"nx":28,"ny":28,"refTime":"2024-07-15T09:00:00:Z","depth":0,"parameterNumber":2,"parameterNumberName":"U-component_of_WINDS"},"data":[0,0,0,0,0,0,0,0,0,0,0,0,0,0,0,0,0,0,0,0,0,0,0,0,0,0,0,0,0,0,0,0,0,0,0,0,0,0,0,0,0,0,0,0,0,0,0,0,0,0,0,0,0,0,0,0,0,0,-0.2391,-0.2391,0,-0.2359,-0.2359,-0.2358,-0.2323,-0.2323,-0.2322,-0.2322,-0.2289,-0.2288,-0.2288,0,0,0,0,0,0,0,0,0,0,0,0,0,-0.2421,-0.242,-0.2391,-0.2391,-0.239,-0.2359,-0.2359,-0.2358,-0.2323,-0.2323,-0.2322,-0.2322,-0.2289,-0.2288,-0.2288,0,0,0,0,0,0,0,0,0,0,0,0,0,-0.24,-0.242,-0.2391,-0.2369,-0.2367,-0.2359,-0.2359,-0.2358,-0.2324,-0.2323,-0.2322,-0.2321,-0.2289,-0.2288,-0.2288,-0.2299,0,0,-0.2286,-0.2285,0,0,0,0,0,0,0,0,-0.2401,-0.2399,-0.2373,-0.2371,-0.2368,-0.2344,-0.2357,-0.2338,-0.2324,-0.234,-0.2322,-0.2321,-0.2308,-0.2305,-0.2301,-0.2297,-0.2296,-0.2286,-0.2285,-0.2285,-0.2285,0,0,0,0,0,0,0,-0.2403,-0.24,-0.2378,-0.2372,-0.237,-0.236,-0.2357,-0.2353,-0.2328,-0.2339,-0.2336,-0.2333,-0.2306,-0.2302,-0.23,-0.2295,-0.2286,-0.2285,-0.2285,-0.2284,-0.2298,-0.2299,0,0,0,0,0,0,-0.2408,-0.2402,-0.2379,-0.2377,-0.2383,-0.2361,-0.2356,-0.2353,-0.2328,-0.2324,-0.2333,-0.2331,-0.2303,-0.2301,-0.2299,-0.231,-0.2285,-0.2284,-0.2284,-0.2298,-0.2298,-0.2299,0,0,0,0,0,0,-0.2408,-0.2406,-0.2381,-0.2389,-0.2385,-0.2361,-0.2357,-0.2353,-0.2348,-0.2324,-0.232,-0.2333,-0.2303,-0.23,-0.2299,-0.2308,-0.2284,-0.2284,-0.2297,-0.2298,-0.2299,-0.2332,0,0,0,0,0,0,-0.2409,-0.2407,-0.2411,-0.2389,-0.2385,-0.2382,-0.2358,-0.2352,-0.2347,-0.2344,-0.2323,-0.2319,-0.2302,-0.23,-0.2298,-0.2307,-0.2283,-0.2296,-0.2297,-0.2298,-0.233,-0.2334,-0.2338,0,0,0,0,0,-0.2411,-0.2422,-0.2411,-0.2409,-0.239,-0.2383,-0.238,-0.236,-0.2348,-0.2352,-0.2337,-0.232,-0.2308,-0.23,-0.2298,-0.2307,-0.2295,-0.2297,-0.2298,-0.2329,-0.2334,-0.2338,0,0,0,0,0,0,-0.2445,-0.2418,-0.2407,-0.2411,-0.2399,-0.2377,-0.2381,-0.2366,-0.2357,-0.2355,-0.233,-0.2325,-0.2327,-0.2317,-0.2309,-0.2316,-0.2299,-0.23,-0.2322,-0.2327,-0.2331,-0.2333,-0.2283,0,0,0,0,0,-0.2453,-0.245,-0.2427,-0.2433,-0.2428,-0.2406,-0.2402,-0.2387,-0.2374,-0.2369,-0.2353,-0.2341,-0.2334,-0.233,-0.2322,-0.2329,-0.2323,-0.2333,-0.2337,-0.234,-0.2342,-0.2343,-0.2347,-0.2305,-0.2305,-0.2305,0,0,-0.247,-0.2455,-0.2454,-0.2439,-0.2429,-0.2425,-0.2402,-0.2399,-0.2396,-0.2368,-0.2366,-0.2355,-0.2339,-0.2342,-0.2342,-0.2333,-0.2352,-0.2342,-0.2345,-0.2345,-0.2345,-0.2349,-0.2353,-0.2306,-0.2306,-0.2305,0,0,-0.2499,-0.2487,-0.2491,-0.248,-0.2464,-0.2449,-0.245,-0.243,-0.2421,-0.2419,-0.2397,-0.2393,-0.2382,-0.2372,-0.2365,-0.2389,-0.2373,-0.2387,-0.2407,-0.2409,-0.2412,-0.2415,-0.2423,-0.2426,-0.2389,-0.2389,-0.2389,0,-0.2521,-0.2516,-0.2494,-0.2493,-0.2487,-0.2461,-0.2464,-0.2455,-0.2438,-0.2433,-0.2424,-0.2409,-0.2396,-0.2396,-0.2402,-0.2397,-0.2397,-0.2389,-0.2414,-0.2416,-0.2419,-0.2426,-0.2429,-0.2391,-0.239,-0.239,-0.239,0,-0.2544,-0.2541,-0.2545,-0.2529,-0.2523,-0.2524,-0.2502,-0.2499,-0.2485,-0.2471,-0.2469,-0.2453,-0.2441,-0.244,-0.2426,-0.2437,-0.2432,-0.2418,-0.2401,-0.2425,-0.2431,-0.2434,-0.2393,-0.2393,-0.2392,-0.2392,0,0,-0.2594,-0.2565,-0.2567,-0.2559,-0.2539,-0.2536,-0.2535,-0.2524,-0.2521,-0.251,-0.2508,-0.2499,-0.2486,-0.2479,-0.2463,-0.2465,-0.2484,-0.2451,-0.245,-0.2457,-0.2494,-0.2504,-0.2508,-0.2473,-0.2474,-0.2474,-0.2495,0,-0.2619,-0.2616,-0.2597,-0.26,-0.2596,-0.2571,-0.2571,-0.2558,-0.2545,-0.2539,-0.2524,-0.2518,-0.2502,-0.2497,-0.2498,-0.2482,-0.2491,-0.248,-0.2471,-0.2471,-0.2475,-0.2511,-0.2522,-0.2543,-0.2498,-0.2498,-0.2498,0,-0.2647,-0.2637,-0.264,-0.262,-0.2617,-0.2617,-0.2605,-0.26,-0.2585,-0.2575,-0.2566,-0.2549,-0.2546,-0.253,-0.2526,-0.2518,-0.2514,-0.2505,-0.2505,-0.2503,-0.2486,-0.251,-0.2549,-0.2552,-0.2502,-0.2502,-0.2502,0,-0.2682,-0.267,-0.267,-0.2664,-0.264,-0.264,-0.263,-0.2614,-0.2609,-0.2598,-0.2594,-0.2583,-0.2577,-0.2568,-0.2548,-0.2538,-0.2546,-0.2528,-0.2537,-0.2537,-0.2539,-0.2539,-0.2578,-0.2537,-0.2537,-0.2537,-0.2537,0,-0.2712,-0.2715,-0.2685,-0.2685,-0.2687,-0.2664,-0.2667,-0.2654,-0.264,-0.2637,-0.2615,-0.2612,-0.2586,-0.258,-0.2564,-0.2562,-0.256,-0.2551,-0.2547,-0.2553,-0.2554,-0.2549,-0.2547,-0.2538,-0.2537,-0.2537,-0.2537,0,-0.2751,-0.2732,-0.273,-0.2708,-0.2702,-0.2704,-0.2685,-0.2683,-0.2669,-0.2665,-0.2662,-0.2639,-0.2631,-0.261,-0.2596,-0.2585,-0.2587,-0.258,-0.2593,-0.259,-0.26,-0.2599,-0.2636,-0.2639,-0.2597,-0.2598,-0.2598,0,-0.2771,-0.2773,-0.275,-0.2747,-0.2738,-0.2732,-0.2726,-0.2703,-0.2698,-0.268,-0.2681,-0.2671,-0.2662,-0.2649,-0.2631,-0.262,-0.2611,-0.2625,-0.261,-0.2615,-0.2611,-0.2611,-0.261,-0.2629,-0.2629,-0.263,-0.263,0,-0.2809,-0.2799,-0.2791,-0.278,-0.2774,-0.2764,-0.2752,-0.2751,-0.2725,-0.272,-0.2711,-0.2704,-0.269,-0.268,-0.2666,-0.2655,-0.2638,-0.2635,-0.2636,-0.2642,-0.2649,-0.2645,-0.2601,-0.2634,-0.2634,-0.2633,-0.2633,-0.2633,-0.2838,-0.2838,-0.2822,-0.2814,-0.2804,-0.2793,-0.2791,-0.2776,-0.2768,-0.2755,-0.2742,-0.2734,-0.2718,-0.2698,-0.2688,-0.2681,-0.2673,-0.2675,-0.2675,-0.2676,-0.2678,-0.2651,-0.2679,-0.2679,-0.2678,-0.2678,-0.2678,0,-0.2874,-0.2862,-0.2855,-0.284,-0.2834,-0.2819,-0.2806,-0.2801,-0.2795,-0.2781,-0.2773,-0.2762,-0.2752,-0.2733,-0.2721,-0.2719,-0.2711,-0.2717,-0.2716,-0.2714,-0.2687,-0.2687,-0.2723,-0.2723,-0.2723,-0.2723,-0.2723,-0.2723,-0.2892,-0.289,-0.2879,-0.2871,-0.2859,-0.2852,-0.2846,-0.2836,-0.2825,-0.2815,-0.2806,-0.2794,-0.2778,-0.2764,-0.2754,-0.2748,-0.2745,-0.2753,-0.2745,-0.272,-0.2716,-0.2712,-0.2711,-0.2753,-0.2753,-0.2772,-0.2772,-0.2772]},{"header":{"parameterUnit":"m.s-1","parameterCategory":1,"la1":30.2991,"la2":30.254,"lo1":-89.0895,"lo2":-89.0444,"dy":0.0017,"dx":0.0017,"nx":28,"ny":28,"refTime":"2024-07-15T09:00:00:Z","depth":0,"parameterNumber":3,"parameterNumberName":"V-component_of_WINDS"},"data":[0,0,0,0,0,0,0,0,0,0,0,0,0,0,0,0,0,0,0,0,0,0,0,0,0,0,0,0,0,0,0,0,0,0,0,0,0,0,0,0,0,0,0,0,0,0,0,0,0,0,0,0,0,0,0,0,0,0,1.3703,1.3704,0,1.3768,1.3768,1.3769,1.382,1.3821,1.3821,1.3822,1.3885,1.3886,1.3887,0,0,0,0,0,0,0,0,0,0,0,0,0,1.362,1.3621,1.3703,1.3704,1.3705,1.3767,1.3768,1.3769,1.382,1.3821,1.3821,1.3822,1.3885,1.3886,1.3887,0,0,0,0,0,0,0,0,0,0,0,0,0,1.3667,1.3622,1.3703,1.3738,1.3742,1.3767,1.3768,1.3769,1.382,1.3821,1.3821,1.3822,1.3884,1.3886,1.3888,1.3883,0,0,1.3893,1.3894,0,0,0,0,0,0,0,0,1.3665,1.367,1.3732,1.3736,1.374,1.3787,1.3762,1.3808,1.382,1.379,1.3822,1.3822,1.3851,1.3856,1.3866,1.3886,1.3889,1.3893,1.3894,1.3895,1.3896,0,0,0,0,0,0,0,1.3661,1.3668,1.3729,1.3733,1.3738,1.3749,1.3756,1.3771,1.3816,1.3793,1.3797,1.3804,1.3854,1.3864,1.3868,1.389,1.3893,1.3895,1.3896,1.3897,1.3905,1.3905,0,0,0,0,0,0,1.3653,1.3665,1.3727,1.3731,1.3703,1.375,1.3758,1.3771,1.3816,1.3823,1.3803,1.3806,1.3861,1.3866,1.3871,1.3866,1.3895,1.3897,1.3898,1.3906,1.3905,1.3904,0,0,0,0,0,0,1.3651,1.3658,1.3724,1.3699,1.3708,1.375,1.3764,1.3772,1.3783,1.3823,1.3831,1.3806,1.3862,1.3868,1.3879,1.3869,1.3898,1.3899,1.3907,1.3906,1.3905,1.3858,0,0,0,0,0,0,1.3649,1.3657,1.3657,1.3698,1.3709,1.3733,1.3764,1.3772,1.3786,1.379,1.3828,1.3835,1.3863,1.3876,1.3881,1.3872,1.3901,1.3908,1.3907,1.3905,1.3861,1.3855,1.3851,0,0,0,0,0,1.3645,1.3642,1.3657,1.3664,1.3711,1.3732,1.3738,1.3771,1.3785,1.3784,1.381,1.3834,1.3869,1.3877,1.3883,1.3874,1.3909,1.3907,1.3905,1.3863,1.3857,1.3851,0,0,0,0,0,0,1.3599,1.3648,1.3666,1.3676,1.3699,1.3741,1.3742,1.3764,1.3783,1.3787,1.3825,1.3833,1.3839,1.3858,1.3865,1.387,1.3892,1.3891,1.3858,1.3852,1.3847,1.3842,1.3902,0,0,0,0,0,1.359,1.3605,1.3647,1.3651,1.3662,1.3699,1.371,1.3733,1.3759,1.3769,1.3796,1.3819,1.3835,1.3845,1.3862,1.3864,1.3871,1.386,1.3855,1.3851,1.385,1.3848,1.3843,1.3898,1.3898,1.3898,0,0,1.3572,1.36,1.3608,1.3643,1.3664,1.3676,1.3708,1.3721,1.373,1.3771,1.3782,1.3802,1.383,1.3836,1.384,1.3852,1.3836,1.3849,1.3845,1.3846,1.3846,1.384,1.3836,1.3897,1.3897,1.3897,0,0,1.3544,1.3569,1.3574,1.3593,1.3624,1.3649,1.3649,1.3687,1.3702,1.3714,1.3744,1.3754,1.3782,1.38,1.3812,1.3787,1.3809,1.3792,1.3765,1.3764,1.3759,1.3756,1.3744,1.374,1.379,1.379,1.379,0,1.3518,1.3539,1.3574,1.3583,1.3597,1.3634,1.3638,1.3655,1.369,1.3697,1.371,1.3743,1.3765,1.3773,1.3767,1.3777,1.3777,1.3787,1.3757,1.3754,1.3751,1.374,1.3736,1.3787,1.3788,1.3788,1.3788,0,1.3503,1.3516,1.3517,1.3548,1.3562,1.3569,1.3602,1.3611,1.3631,1.3653,1.3663,1.369,1.3712,1.3715,1.3736,1.3726,1.3732,1.375,1.3773,1.3743,1.3733,1.3729,1.3784,1.3785,1.3786,1.3786,0,0,1.3451,1.3499,1.3498,1.3511,1.3546,1.3557,1.3564,1.3585,1.359,1.3612,1.3617,1.3638,1.3654,1.3668,1.3691,1.3689,1.3664,1.3708,1.3709,1.3697,1.365,1.3634,1.3629,1.3678,1.3678,1.3677,1.3647,0,1.3427,1.3443,1.3472,1.3478,1.3489,1.3522,1.3528,1.3548,1.3568,1.3579,1.3601,1.3614,1.3636,1.3644,1.3644,1.3667,1.3654,1.367,1.3681,1.3681,1.3672,1.3625,1.3609,1.3579,1.3644,1.3643,1.3643,0,1.3404,1.3422,1.3428,1.3458,1.3464,1.3469,1.3488,1.3499,1.3522,1.3536,1.355,1.3574,1.358,1.3601,1.3609,1.3618,1.3624,1.3636,1.3635,1.3637,1.3659,1.3623,1.3571,1.3566,1.3638,1.3638,1.3638,0,1.3362,1.3388,1.3394,1.3405,1.3441,1.3443,1.3458,1.3482,1.3491,1.3508,1.3514,1.3531,1.354,1.3551,1.3578,1.3591,1.3581,1.3606,1.3591,1.359,1.3588,1.3587,1.3534,1.3594,1.3594,1.3594,1.3594,0,1.3332,1.3334,1.3375,1.3379,1.3381,1.3413,1.3413,1.3431,1.3451,1.3457,1.3487,1.3492,1.3528,1.3536,1.3557,1.3558,1.3562,1.3572,1.3577,1.3569,1.3567,1.3573,1.3575,1.3593,1.3593,1.3593,1.3594,0,1.3287,1.3315,1.3323,1.3356,1.3364,1.3363,1.339,1.3394,1.3414,1.3421,1.3424,1.3456,1.3466,1.3494,1.3513,1.3526,1.3521,1.3532,1.3513,1.3516,1.3499,1.35,1.3447,1.344,1.3506,1.3505,1.3504,0,1.3266,1.3268,1.3299,1.3305,1.3319,1.3329,1.3338,1.3368,1.3376,1.34,1.3399,1.3412,1.3424,1.3439,1.3463,1.3476,1.3486,1.3466,1.3488,1.3478,1.3483,1.3482,1.348,1.3461,1.346,1.346,1.3459,0,1.3225,1.3237,1.325,1.3265,1.3275,1.3289,1.3304,1.3307,1.3341,1.3348,1.3359,1.3368,1.3385,1.3396,1.3412,1.3426,1.3447,1.3452,1.3449,1.3439,1.3427,1.3431,1.3498,1.3453,1.3454,1.3454,1.3454,1.3455,1.3189,1.3191,1.3212,1.3224,1.3238,1.3251,1.3254,1.3274,1.3284,1.33,1.3317,1.3325,1.3344,1.3367,1.3379,1.3384,1.3396,1.3392,1.3391,1.3389,1.3384,1.3427,1.3388,1.3388,1.3388,1.3388,1.3388,0,1.3148,1.3162,1.3172,1.3192,1.32,1.3219,1.3236,1.3241,1.3247,1.3263,1.3273,1.3284,1.3294,1.3317,1.3328,1.3328,1.3337,1.333,1.3329,1.3331,1.3374,1.3375,1.3321,1.3321,1.3321,1.3321,1.3321,1.3321,1.3127,1.313,1.3144,1.3152,1.3167,1.3175,1.3182,1.3193,1.3205,1.3215,1.3223,1.3238,1.3256,1.3268,1.3277,1.3284,1.3285,1.3274,1.3283,1.3322,1.3329,1.3335,1.3335,1.3274,1.3274,1.3239,1.3239,1.3239]}]]